Overview Statistics Trail Chart Weather Telemetry Raw packets
 

This is the latest recevied weather packets stored in our database for station/object WA6ODQ-13. If no packets are shown the sender has not sent any weather packets the latest 10 day(s).

<< 94 95 96 97 98 99 100 >>
Time Temp. Humidity Pressure Rain* Wind** Luminosity Snow
1787967035 22.78° C 59% 1011.8 hPa 0 mm - 65 W/m² -
1787966732 22.78° C 59% 1011.7 hPa 0 mm - 59 W/m² -
1787966431 22.78° C 59% 1011.8 hPa 0 mm - 60 W/m² -
1787966126 22.78° C 59% 1011.7 hPa 0 mm - 49 W/m² -
1787965825 22.78° C 57% 1011.8 hPa 0 mm - 51 W/m² -
1787965520 22.78° C 58% 1011.8 hPa 0 mm - 49 W/m² -
1787965216 22.78° C 57% 1012 hPa 0 mm - 49 W/m² -
1787964909 22.78° C 58% 1011.8 hPa 0 mm - 53 W/m² -
1787964604 22.78° C 57% 1011.7 hPa 0 mm - 62 W/m² -
1787964298 22.78° C 59% 1011.9 hPa 0 mm - 63 W/m² -
1787963998 22.78° C 59% 1011.8 hPa 0 mm - 51 W/m² -
1787963693 22.78° C 60% 1011.8 hPa 0 mm - 45 W/m² -
1787963387 22.78° C 61% 1011.7 hPa 0 mm - 50 W/m² -
1787963083 22.78° C 60% 1011.7 hPa 0 mm - 58 W/m² -
1787962782 22.22° C 62% 1011.8 hPa 0 mm - 70 W/m² -
1787962481 22.22° C 63% 1011.7 hPa 0 mm - 75 W/m² -
1787962179 22.22° C 63% 1011.5 hPa 0 mm - 82 W/m² -
1787961875 22.22° C 63% 1011.7 hPa 0 mm - 100 W/m² -
1787961573 22.22° C 63% 1012 hPa 0 mm - 99 W/m² -
1787961268 22.22° C 63% 1012.1 hPa 0 mm - 74 W/m² -
1787960967 21.67° C 64% 1011.9 hPa 0 mm - 68 W/m² -
1787960663 21.67° C 64% 1011.9 hPa 0 mm - 73 W/m² -
1787960361 21.67° C 65% 1012 hPa 0 mm - 83 W/m² -
1787960056 21.67° C 65% 1012 hPa 0 mm - 88 W/m² -
1787959751 21.67° C 67% 1012.2 hPa 0 mm - 88 W/m² -

* Rain latest hour (hover to see other rain measurements)
** Current wind speed in m/s (hover to see current wind gust speed)